GFSNIL_sfc_thetae_000.txt.gz
Theta_e
319 317 316 316 316 315 315 316 318 320 321 322 323 323 323 323 322 323 324 324 324 324
320 317 317 317 317 316 316 318 319 320 321 322 323 323 323 324 325 325 325 324 325 326
321 319 318 318 317 317 317 319 320 320 321 322 323 324 324 325 327 327 324 325 327 326
321 320 317 319 318 318 317 318 320 321 322 322 323 323 325 326 326 326 326 326 326 325
322 320 318 319 318 318 318 319 320 322 322 322 322 323 324 325 326 326 325 325 326 324
320 319 318 318 318 318 319 320 322 323 323 322 323 323 323 323 324 326 325 326 325 325
319 319 318 319 319 319 321 321 322 323 323 323 324 323 322 322 324 326 326 325 325 326
318 319 319 319 320 320 322 322 323 324 324 324 324 323 322 323 324 325 325 325 325 325
318 319 319 319 319 320 320 322 323 324 324 324 325 306 312 320 323 326 326 323 323 323
318 319 318 318 318 318 318 320 321 321 323 323 321 302 306 311 325 325 324 324 325 325
317 318 317 317 317 315 315 318 318 318 321 321 317 302 303 310 324 324 325 326 326 325
316 317 316 316 315 314 314 314 315 316 320 321 317 300 301 317 325 324 325 326 324 325
316 317 316 315 314 313 314 314 313 314 319 314 319 300 302 316 324 321 321 322 322 311
316 316 316 315 314 313 312 312 312 311 312 316 316 312 300 306 322 320 319 320 319 320

GFSNIL_sfc_thetae_003.txt.gz
Theta_e
333 329 328 328 327 326 327 327 330 329 330 331 331 331 332 332 330 331 333 332 331 331
333 329 329 329 328 326 328 327 328 329 330 330 331 332 332 333 332 331 331 332 331 331
333 330 330 329 327 327 327 328 328 328 330 331 331 333 333 332 331 331 332 332 333 332
332 330 329 329 328 327 328 328 327 328 328 329 331 333 332 331 329 329 331 333 328 329
333 330 328 329 329 328 327 327 327 329 328 329 330 332 331 328 327 326 327 328 327 328
332 331 331 329 329 329 328 328 329 330 329 329 330 331 331 330 328 328 328 330 328 329
330 331 330 329 329 329 330 329 331 331 330 330 330 330 330 329 328 328 329 329 330 331
330 329 330 329 329 330 331 330 331 331 330 331 330 328 329 329 328 329 328 331 331 332
327 327 329 329 330 330 330 331 331 330 329 330 328 306 313 324 328 330 331 330 331 331
327 326 328 328 329 329 329 331 331 330 330 330 329 303 305 311 329 329 330 332 331 329
326 326 327 328 327 328 329 330 330 330 331 331 327 301 303 309 328 328 328 332 332 331
326 326 326 327 327 326 328 329 328 328 330 330 325 301 302 317 325 326 328 330 332 332
325 327 327 329 327 326 329 328 325 327 331 320 325 300 301 318 329 327 328 326 325 311
326 328 329 329 327 326 326 325 324 325 327 329 325 318 300 306 324 327 328 327 328 327

GFSNIL_sfc_thetae_006.txt.gz
Theta_e
337 332 332 332 332 331 331 329 334 334 333 334 334 334 336 335 333 334 333 332 334 335
336 333 332 334 334 331 332 330 332 332 333 334 334 334 334 334 334 334 332 334 336 338
336 335 334 333 331 331 332 330 331 331 334 334 334 333 334 336 334 334 332 332 333 333
335 334 334 333 331 331 332 331 329 329 331 332 332 334 335 333 331 331 332 334 332 334
334 335 334 333 332 331 330 331 329 329 329 330 332 334 333 330 328 329 330 329 333 333
333 333 333 333 334 332 330 330 329 330 329 330 331 333 333 332 328 328 331 333 334 334
333 334 334 333 332 332 331 330 332 332 331 331 330 332 332 330 328 330 332 332 334 334
333 334 333 332 332 332 332 332 332 332 331 332 331 329 330 329 333 332 330 331 331 331
330 331 332 332 332 332 332 332 331 331 331 331 328 307 315 325 331 333 333 332 330 331
329 330 331 331 331 331 332 334 332 332 332 331 330 305 306 311 331 334 333 334 333 329
328 330 331 332 331 333 334 334 333 333 333 331 326 303 303 309 333 334 333 333 333 333
328 329 329 330 333 334 334 334 333 333 333 332 328 302 303 316 328 332 331 333 334 332
329 329 329 332 332 335 334 332 331 332 334 321 330 301 302 315 328 331 330 333 333 308
330 331 332 334 333 334 332 331 331 332 333 332 327 323 300 305 333 332 329 330 329 327

GFSNIL_sfc_thetae_009.txt.gz
Theta_e
338 333 332 333 332 332 331 332 334 333 335 335 334 335 336 339 337 335 336 334 336 335
337 334 335 336 336 333 336 331 332 333 333 334 334 333 335 336 334 335 334 336 336 335
335 335 336 335 333 333 333 331 331 331 333 333 333 333 335 335 335 334 333 334 335 336
335 333 335 334 333 332 333 331 330 330 330 330 331 335 336 335 333 331 334 334 333 334
335 335 335 334 333 332 331 330 329 329 329 329 332 333 333 331 330 331 331 333 333 332
333 334 335 334 335 331 330 329 329 330 328 330 332 333 332 330 331 331 332 333 334 334
333 333 335 333 332 331 329 329 332 330 331 331 331 332 332 328 331 331 332 333 335 334
333 334 333 332 332 331 330 331 332 331 331 332 332 330 333 333 333 329 330 333 332 332
331 331 332 332 333 332 333 331 333 331 330 332 329 307 313 323 334 332 332 329 328 328
330 330 331 331 330 330 334 336 333 331 332 332 329 306 306 311 334 335 334 333 332 328
329 330 330 331 332 333 336 334 333 333 333 332 326 306 305 310 335 336 334 334 333 330
330 330 331 330 333 336 337 336 335 334 333 332 328 304 303 316 334 332 333 333 333 333
330 330 330 332 334 335 336 334 334 333 334 322 330 304 301 315 333 332 331 334 332 310
332 331 334 334 334 334 333 333 335 333 334 333 330 323 302 304 334 333 332 328 329 326

GFSNIL_sfc_thetae_012.txt.gz
Theta_e
342 337 339 338 335 335 334 333 335 331 332 335 335 334 334 333 333 332 330 329 329 328
341 337 338 338 339 336 335 333 334 333 334 335 334 334 332 330 332 332 333 331 331 329
338 338 338 338 337 335 335 335 334 331 334 334 332 331 332 333 333 332 332 333 332 330
336 333 334 335 334 334 335 333 332 331 330 330 329 332 333 332 332 331 331 332 330 332
336 333 335 335 331 335 334 333 332 331 328 330 331 333 330 331 330 330 330 331 330 330
334 332 335 333 334 334 333 331 332 327 330 331 333 331 329 330 330 331 331 331 331 328
331 333 335 333 331 334 331 331 328 330 331 332 332 333 330 330 331 326 329 329 329 330
332 333 333 329 331 330 333 331 332 328 329 332 331 326 330 330 327 328 325 326 327 325
332 332 331 330 332 333 333 331 330 332 330 331 325 308 316 326 329 329 329 324 328 327
331 330 331 330 330 330 330 331 330 330 330 328 323 305 305 315 331 331 329 327 326 326
328 329 330 331 330 332 334 333 329 331 332 328 319 305 303 308 333 333 330 329 327 327
329 330 329 330 333 333 334 333 331 333 333 328 324 306 302 316 332 331 329 330 330 329
330 330 330 333 334 335 336 331 333 333 333 320 325 304 302 311 333 330 329 329 323 309
332 334 335 337 337 336 330 332 332 330 332 330 327 316 302 303 331 330 329 326 323 315

GFSNIL_sfc_thetae_015.txt.gz
Theta_e
327 326 325 325 325 324 323 323 323 323 324 326 327 327 326 325 323 323 322 321 320 320
328 327 326 325 324 324 323 324 323 324 325 326 327 327 324 323 322 324 322 322 322 321
328 327 326 325 324 322 323 325 324 323 325 325 328 327 325 323 325 324 323 325 324 323
327 327 325 325 323 322 323 322 322 324 326 327 326 326 325 324 325 324 324 324 324 325
325 327 325 324 326 323 321 322 322 324 326 329 328 325 325 324 324 324 324 324 325 325
326 327 324 324 326 323 323 321 324 326 328 329 327 326 325 325 325 325 323 324 324 324
327 327 325 324 326 323 323 320 325 326 329 328 328 328 326 328 326 325 325 325 326 327
326 329 327 327 324 324 321 324 326 326 328 324 323 325 326 327 326 324 324 325 325 326
326 329 327 326 326 326 324 326 325 326 324 320 321 307 311 322 326 326 325 325 324 323
327 325 324 327 325 324 323 325 325 325 321 317 314 303 305 310 327 325 324 322 325 324
326 326 326 325 322 323 323 324 324 323 320 316 312 303 302 310 327 327 326 325 325 324
326 325 326 326 322 323 323 323 322 323 319 316 312 304 301 319 326 326 325 326 327 325
326 326 325 323 323 324 323 325 325 325 320 314 315 303 301 315 326 323 321 321 321 311
325 324 326 325 325 324 324 324 324 322 320 319 316 311 301 307 325 323 321 320 320 316

GFSNIL_sfc_thetae_018.txt.gz
Theta_e
324 324 323 323 322 321 321 321 320 321 321 323 325 326 325 322 321 320 321 318 317 317
324 324 322 322 322 322 321 322 322 322 323 325 325 326 324 322 321 321 321 321 319 318
324 323 323 322 321 320 320 321 322 321 323 323 324 325 324 322 321 320 321 323 322 321
323 323 323 322 321 320 321 321 322 322 322 323 324 324 323 322 321 323 322 322 323 323
323 322 322 321 320 320 319 319 320 321 323 326 326 324 322 322 323 322 322 323 322 324
323 325 321 321 322 319 320 320 320 322 325 325 325 323 323 325 323 321 322 323 323 324
324 325 322 321 322 320 321 318 320 325 326 326 326 326 327 326 325 322 323 324 324 325
324 326 322 321 321 321 320 322 326 326 322 321 322 321 325 325 324 323 322 322 325 325
325 326 326 324 321 324 320 323 325 324 320 318 318 304 309 320 324 324 324 322 322 321
325 324 325 325 324 322 323 324 324 319 318 315 313 302 304 311 325 323 323 324 323 321
324 322 322 324 323 323 323 321 320 317 315 314 313 301 303 310 326 321 323 324 322 321
323 323 324 322 319 320 320 318 319 317 315 314 315 300 303 318 325 324 325 324 323 323
323 322 322 320 319 320 320 321 321 319 316 312 316 300 301 316 323 323 323 323 318 309
322 322 322 320 321 321 322 321 320 318 315 315 315 311 301 307 321 322 321 321 319 315

GFSNIL_sfc_thetae_021.txt.gz
Theta_e
323 323 324 323 322 321 321 320 320 320 320 321 322 323 322 321 320 318 318 317 315 315
322 322 322 321 320 320 320 320 320 320 320 321 322 323 322 321 320 320 319 319 316 315
321 321 321 321 320 320 319 319 320 319 319 321 323 324 321 320 319 319 319 320 320 317
321 321 321 320 319 318 318 319 320 321 320 321 321 323 320 321 320 321 319 320 321 320
320 320 319 319 318 319 319 319 320 320 320 323 323 322 321 322 323 321 321 320 321 321
320 319 318 318 318 319 317 317 318 319 323 324 323 322 324 324 322 320 320 320 321 322
320 321 319 319 318 317 319 318 318 325 325 324 324 325 327 326 324 320 321 322 323 323
322 323 320 319 319 318 319 318 325 324 321 320 321 319 323 323 321 320 320 323 323 322
323 322 321 319 318 318 318 322 325 322 319 317 318 304 306 319 323 324 323 321 322 321
323 322 323 321 319 318 320 323 323 317 316 314 314 301 306 310 323 322 323 323 321 321
323 321 323 323 317 317 323 323 319 315 314 314 313 300 306 311 321 323 323 322 321 320
322 319 320 318 317 317 317 317 315 314 313 315 316 299 306 317 323 323 322 322 323 322
321 320 319 318 317 317 317 317 318 315 315 311 316 300 303 315 324 322 321 320 318 308
320 319 319 318 318 318 318 319 317 315 314 316 314 311 302 306 322 323 320 319 317 313

GFSNIL_sfc_thetae_024.txt.gz
Theta_e
326 326 326 326 325 324 322 323 324 325 323 323 324 324 324 324 323 323 321 321 320 320
324 325 323 322 323 323 322 323 323 323 322 323 324 325 325 324 324 324 322 322 321 320
323 324 323 323 322 322 322 322 322 322 323 324 325 326 326 325 324 323 322 323 322 320
322 323 323 322 322 322 321 321 322 323 323 324 325 325 324 324 324 323 323 323 324 323
321 321 321 320 320 320 320 321 323 323 323 324 324 325 324 324 325 323 323 324 324 324
320 320 320 319 320 321 321 321 322 322 323 326 325 325 325 324 325 323 324 324 324 324
320 320 320 320 320 320 321 320 322 326 326 326 326 326 327 327 325 323 324 325 325 325
322 322 320 320 319 320 321 321 326 325 323 323 323 319 322 325 324 323 323 325 325 325
323 322 321 321 319 320 320 324 326 324 321 320 319 303 308 319 325 324 323 322 322 322
323 322 322 320 320 320 320 325 323 320 320 318 318 300 306 311 324 324 323 322 321 319
323 322 324 321 319 320 324 324 322 318 317 318 314 301 307 309 325 323 322 322 320 319
323 321 322 319 320 320 322 322 319 317 317 319 318 302 305 317 323 323 322 322 321 321
323 321 320 320 319 320 320 320 319 317 319 312 318 301 303 317 324 320 320 320 318 308
322 321 321 320 321 320 320 320 319 318 318 319 315 311 301 308 323 320 319 318 316 313

GFSNIL_sfc_thetae_027.txt.gz
Theta_e
340 339 339 340 338 336 337 337 339 339 338 336 335 335 335 333 333 334 332 332 331 330
338 339 339 339 340 337 338 336 337 336 335 334 334 335 335 333 334 334 333 332 332 331
337 338 337 338 337 337 336 336 335 334 334 333 334 334 336 337 336 334 332 332 332 332
335 335 337 336 336 335 335 334 333 332 332 332 333 335 336 336 334 330 333 333 332 331
335 335 334 334 334 333 332 332 332 331 331 331 331 333 333 331 331 328 331 331 331 330
333 333 334 333 332 331 331 331 332 331 330 331 332 332 333 326 327 329 332 332 331 331
332 332 331 331 331 331 331 331 330 331 332 333 333 333 331 330 329 327 332 333 333 332
331 331 330 330 331 331 330 330 333 333 332 332 332 325 328 331 329 326 330 331 333 334
330 330 330 330 330 330 329 332 332 331 330 330 327 303 307 320 329 328 327 326 328 328
330 329 328 329 328 329 331 331 328 331 328 328 329 301 304 310 328 326 326 325 325 324
329 328 328 328 329 330 332 328 328 329 327 329 322 303 304 310 328 326 324 324 325 324
328 327 327 327 330 332 329 327 328 329 327 329 324 303 303 316 325 324 322 322 321 321
328 328 328 329 330 332 333 328 328 327 328 316 325 301 303 318 325 323 322 322 320 307
330 329 330 331 331 331 332 329 329 327 328 327 322 318 301 308 326 324 320 318 317 312

GFSNIL_sfc_thetae_030.txt.gz
Theta_e
350 347 347 347 345 344 343 344 348 347 346 345 345 342 340 336 334 337 335 336 335 333
348 349 347 348 348 344 346 345 346 346 345 342 340 339 339 333 335 336 338 337 336 336
348 348 348 346 344 344 344 344 343 342 340 338 337 337 338 335 337 337 341 334 335 336
344 345 345 343 343 343 343 342 339 337 336 335 335 337 339 338 336 334 335 335 334 334
342 342 342 341 341 341 339 337 335 334 333 333 334 337 336 334 334 332 331 333 333 332
341 341 340 339 339 337 336 334 333 333 333 332 333 335 336 334 333 329 332 334 333 332
339 339 338 337 336 334 333 333 333 333 332 333 334 336 336 333 335 334 334 335 335 334
336 336 335 334 334 333 333 332 333 333 333 335 336 332 336 335 335 330 333 335 335 336
333 333 334 334 334 333 333 334 333 333 332 334 331 306 307 320 331 334 333 333 333 335
332 331 332 331 331 331 334 334 334 334 332 333 335 304 304 311 330 330 330 329 329 330
329 329 329 329 330 333 333 335 335 334 334 334 329 305 304 309 330 327 326 329 329 330
329 328 329 328 331 334 334 334 335 333 334 334 331 304 304 318 326 324 322 323 327 328
329 327 328 330 331 334 334 333 331 333 335 320 330 302 305 318 326 323 322 324 324 309
331 330 331 332 334 332 332 332 333 332 334 331 327 321 304 309 326 323 321 319 319 316

GFSNIL_sfc_thetae_033.txt.gz
Theta_e
353 349 349 347 343 343 343 345 350 349 350 348 346 344 345 341 338 340 335 337 337 334
350 354 347 353 354 347 352 348 348 348 346 345 343 343 344 337 337 339 339 338 337 337
351 352 350 352 345 347 351 350 347 345 344 343 342 340 340 338 337 337 342 339 337 337
345 346 347 346 346 346 348 344 342 341 340 338 337 337 338 338 336 335 337 337 335 334
345 346 346 344 343 343 342 341 339 337 335 334 333 336 336 335 334 334 333 334 335 332
342 344 345 341 342 340 338 336 335 333 332 332 333 335 337 335 335 335 333 333 334 332
341 341 340 339 339 337 335 333 333 333 332 332 332 334 335 335 334 335 332 337 336 333
339 338 337 336 335 334 334 333 332 332 333 333 336 332 336 335 334 334 334 335 334 336
333 332 334 334 335 334 332 335 334 333 333 335 330 306 309 324 334 332 331 333 334 335
332 331 332 332 332 331 335 336 336 334 333 335 331 306 308 314 333 334 333 333 334 333
328 329 330 331 330 336 336 336 335 334 335 336 325 306 306 311 332 331 331 331 333 333
328 328 327 328 331 335 334 335 335 335 335 334 329 305 308 321 327 324 325 329 330 330
329 328 329 331 332 335 334 333 332 334 335 320 329 304 306 318 325 322 321 324 325 305
329 329 333 335 335 334 332 333 334 333 334 332 328 321 305 308 325 324 323 319 322 324

GFSNIL_sfc_thetae_036.txt.gz
Theta_e
348 352 354 348 344 342 340 341 343 344 343 344 345 346 344 341 339 338 336 335 333 332
351 354 349 348 344 343 343 342 342 346 345 346 344 343 341 339 338 338 336 335 335 332
351 353 349 347 344 346 347 346 345 345 344 343 342 340 341 339 338 337 336 335 333 333
350 349 350 348 346 347 347 345 344 343 341 340 340 340 338 338 335 334 334 334 331 333
343 343 343 343 342 344 344 343 341 341 338 337 337 338 337 335 334 332 333 332 331 332
341 339 338 338 342 343 342 342 338 337 335 333 334 334 337 335 334 333 332 332 330 331
338 339 339 341 341 339 338 337 335 336 333 334 333 335 335 334 333 333 331 333 331 331
338 338 339 338 338 337 336 335 334 335 332 335 329 330 334 336 334 332 329 331 332 331
337 336 336 336 333 336 336 335 331 332 332 333 327 306 309 324 333 332 331 328 330 327
333 331 331 332 332 335 335 334 332 331 332 331 324 305 307 314 333 333 331 331 330 331
330 330 331 331 332 335 334 335 334 333 333 329 319 305 308 315 331 332 332 332 331 331
330 329 329 330 332 334 333 333 334 334 334 328 323 305 309 320 327 328 328 325 324 329
329 329 330 330 333 334 334 334 334 332 333 318 324 304 307 317 322 320 320 325 322 306
329 329 330 332 333 333 334 333 332 331 331 329 325 317 306 309 325 323 322 321 321 315

GFSNIL_sfc_thetae_039.txt.gz
Theta_e
333 332 337 341 338 336 336 336 337 337 340 340 340 340 336 334 333 332 328 329 323 324
337 335 340 338 337 337 336 338 337 340 340 340 339 337 335 334 330 331 328 326 325 324
341 343 340 338 336 336 335 337 337 339 338 338 337 337 334 330 329 328 326 327 325 325
341 343 340 337 337 337 337 337 338 338 337 337 335 333 329 328 327 327 326 326 327 326
342 342 341 339 340 340 338 339 339 338 337 335 334 332 327 326 328 327 325 327 327 326
340 339 338 339 340 340 337 337 337 334 332 331 330 328 328 328 327 326 327 327 328 326
335 336 336 336 336 334 332 331 328 328 328 328 330 332 332 329 327 326 327 328 328 328
335 335 334 332 329 328 326 325 326 329 329 328 327 327 329 328 327 325 325 325 329 327
334 333 330 328 327 325 325 326 327 329 327 324 321 305 310 322 326 326 324 323 325 323
331 330 327 325 325 327 324 328 329 329 325 319 315 304 307 316 326 323 323 325 325 326
327 326 325 326 328 328 328 328 328 325 322 317 314 305 307 318 326 324 323 325 327 325
327 326 324 327 327 327 324 323 324 324 321 317 316 304 310 317 323 323 322 321 323 323
326 326 327 324 325 323 324 324 326 325 321 314 316 302 306 316 321 320 321 320 316 308
324 325 326 327 324 323 323 324 325 323 320 319 316 311 305 309 320 320 318 319 316 312

GFSNIL_sfc_thetae_042.txt.gz
Theta_e
327 328 328 331 334 335 337 335 336 336 336 336 336 336 336 334 333 331 328 327 326 326
329 328 332 334 334 335 334 335 334 335 335 336 339 338 336 332 331 331 326 325 323 321
331 331 334 336 335 335 335 336 334 334 334 338 338 336 334 330 332 330 324 324 322 322
335 335 335 336 335 335 334 334 334 334 336 336 334 331 330 331 329 326 324 323 323 323
339 336 334 334 336 336 333 334 336 336 336 336 334 332 330 326 326 324 323 323 323 324
338 337 335 337 338 336 336 335 337 336 334 334 333 331 328 326 325 325 324 324 324 323
337 337 337 339 339 337 337 336 334 334 333 333 330 327 327 325 324 324 325 326 326 326
335 336 335 334 333 333 332 331 328 327 326 327 327 327 328 327 325 323 323 325 326 327
333 332 329 328 326 326 323 326 324 323 323 322 320 304 313 321 323 323 322 321 322 322
330 329 327 326 324 322 322 323 323 323 321 318 314 303 305 312 323 321 321 321 322 325
328 326 323 324 322 323 326 326 324 321 318 315 314 304 306 312 323 322 321 322 325 324
324 322 325 326 325 326 327 324 320 317 316 317 317 303 306 316 320 318 317 322 324 324
325 326 325 326 325 324 321 323 322 319 317 311 316 302 303 314 320 319 317 316 316 309
326 325 326 325 324 321 323 322 319 317 316 317 317 311 301 307 318 319 318 316 316 313

GFSNIL_sfc_thetae_045.txt.gz
Theta_e
323 322 322 322 325 327 330 330 335 337 336 335 336 335 334 334 333 332 331 330 329 327
322 322 322 324 328 330 330 332 334 335 335 335 335 334 332 332 332 331 328 325 323 321
323 324 325 327 330 331 331 333 334 334 334 334 334 334 334 332 331 327 326 326 322 320
325 326 329 331 331 332 333 333 334 334 333 334 333 335 333 331 329 328 325 322 321 321
329 331 331 331 331 332 331 333 335 336 336 335 335 332 330 327 328 325 322 322 321 321
332 331 330 331 333 334 334 336 336 335 334 334 331 329 329 329 326 323 323 322 321 322
332 333 333 334 335 334 335 334 334 334 333 333 332 331 329 327 323 323 323 323 323 322
334 335 337 336 335 334 334 334 333 331 330 330 329 328 324 323 322 321 321 322 324 324
334 334 335 334 332 331 328 329 329 326 326 322 321 307 313 320 322 322 321 320 322 322
330 329 329 328 327 326 325 323 321 319 318 316 315 303 306 311 321 320 319 319 319 321
328 325 325 325 324 323 322 319 318 317 318 316 313 303 303 309 320 318 319 319 320 320
326 324 324 323 324 322 321 318 317 318 317 317 316 302 302 314 317 316 320 320 322 323
326 325 323 324 322 321 321 320 319 316 319 313 316 300 302 312 317 317 318 318 316 307
324 323 322 321 324 324 321 317 316 315 316 318 313 308 300 306 319 318 315 316 315 310

GFSNIL_sfc_thetae_051.txt.gz
Theta_e
333 333 336 340 338 339 339 341 348 346 348 348 347 347 346 343 343 345 343 343 340 339
330 335 338 345 347 341 345 341 344 345 346 347 347 347 347 344 345 345 345 342 341 337
329 333 337 341 341 343 341 341 342 345 347 347 347 349 348 347 347 346 344 339 337 337
328 332 333 335 337 339 341 341 341 343 345 346 348 348 348 347 346 344 341 340 341 340
329 331 331 332 335 338 339 341 341 343 344 347 347 348 346 345 343 340 338 338 338 337
330 330 330 332 336 338 339 341 343 344 345 346 347 345 343 343 340 336 336 333 335 337
332 330 331 335 337 339 340 342 344 346 347 347 345 342 339 337 339 341 337 335 339 336
335 332 333 336 338 340 342 343 345 346 346 345 343 339 341 342 341 340 338 338 337 338
334 333 335 337 340 341 343 344 344 344 343 341 338 310 317 330 338 338 337 336 336 336
335 335 335 336 339 340 340 342 342 338 339 340 330 305 308 314 337 336 336 336 336 335
336 336 336 338 340 340 342 342 340 339 337 330 316 302 302 308 336 336 336 336 336 337
336 334 336 338 338 337 333 335 332 327 327 326 321 300 301 318 335 334 333 334 335 335
336 335 335 335 333 333 332 327 329 329 331 317 321 299 301 321 331 330 328 329 329 308
336 335 332 331 328 326 326 326 326 324 324 325 323 314 300 306 330 328 326 328 326 324

GFSNIL_sfc_thetae_054.txt.gz
Theta_e
333 332 335 341 338 338 339 342 359 355 356 356 356 355 356 351 349 351 350 350 350 348
330 335 337 345 345 341 346 344 351 352 354 355 356 355 354 347 350 350 350 350 349 347
327 332 337 342 346 350 353 351 349 351 352 354 352 351 353 350 353 350 350 350 349 349
327 331 334 337 341 345 349 348 346 348 349 349 349 351 353 354 352 351 351 350 348 346
326 330 334 336 341 342 344 347 347 347 347 346 347 352 352 352 350 350 348 347 346 342
325 330 335 337 341 342 341 344 347 346 344 344 346 350 352 352 350 349 347 344 344 343
326 331 334 338 340 341 340 342 345 345 344 344 347 350 351 351 348 346 345 346 343 342
327 331 335 338 339 340 340 341 343 344 344 347 348 347 350 348 344 345 344 342 340 343
329 332 334 339 338 340 341 343 344 345 346 348 345 314 319 336 344 344 342 341 341 341
329 331 335 338 338 340 345 348 347 347 347 347 345 310 312 320 344 344 342 341 340 337
328 333 337 337 340 346 348 349 348 346 347 346 337 305 308 313 341 339 339 339 339 339
328 335 337 338 343 344 346 344 345 345 344 340 329 302 304 320 339 338 338 338 339 338
332 334 336 341 341 343 343 342 342 342 342 326 324 300 302 316 335 336 335 337 337 308
332 334 337 339 340 340 340 340 338 336 334 334 332 319 301 304 335 333 332 331 332 330

GFSNIL_sfc_thetae_057.txt.gz
Theta_e
337 329 331 339 338 341 344 349 360 364 360 364 363 363 364 358 356 358 354 357 355 342
334 336 334 343 349 338 345 345 353 364 362 363 361 362 363 356 358 357 357 356 358 351
330 333 336 341 344 345 349 349 348 354 358 358 360 361 361 358 359 355 352 350 354 351
327 327 333 336 341 343 350 352 352 349 352 355 357 358 360 357 353 353 355 354 352 351
327 329 333 335 339 343 347 349 349 349 349 350 355 358 356 351 348 351 349 351 350 349
329 331 332 334 338 343 343 345 347 347 347 349 352 353 354 350 348 350 350 351 350 347
329 331 332 335 337 339 341 342 343 348 347 348 349 349 350 350 352 351 351 351 348 346
328 329 328 331 335 338 341 341 341 343 345 350 349 346 352 352 353 352 350 350 346 347
323 325 329 334 336 340 342 343 344 344 345 349 343 318 320 343 351 348 346 345 344 344
322 323 325 328 332 338 344 348 348 347 348 350 351 312 315 322 349 347 348 346 345 340
320 322 324 330 332 340 346 349 351 352 352 353 342 308 310 317 347 345 344 343 342 342
318 321 325 328 334 342 346 348 351 352 352 348 336 305 310 324 343 341 340 339 339 338
319 323 328 332 338 343 348 349 349 347 350 330 339 302 307 320 337 338 335 338 338 314
321 327 331 338 342 344 347 341 341 342 341 341 335 322 302 305 336 334 334 332 334 332

GFSNIL_sfc_thetae_060.txt.gz
Theta_e
332 335 332 333 333 335 340 337 336 341 338 333 334 336 337 341 353 356 355 351 352 346
333 333 330 333 336 336 342 340 342 342 339 337 341 348 347 353 354 355 354 352 350 351
329 331 332 334 334 335 336 338 343 342 349 350 352 353 356 355 355 354 353 351 349 348
326 329 331 331 332 332 338 340 341 341 345 350 354 355 355 355 354 352 350 349 347 348
327 330 330 328 331 336 335 340 340 343 343 342 343 350 353 353 353 350 347 347 347 347
326 329 329 330 331 332 333 335 339 341 342 345 347 349 353 354 351 348 347 348 347 347
327 329 331 332 330 329 330 332 337 340 342 344 344 348 352 352 347 347 349 349 349 348
327 329 328 327 328 328 329 333 335 337 341 342 345 347 349 348 347 349 348 350 349 347
321 322 325 325 328 328 328 330 335 337 338 341 343 324 323 339 348 350 347 346 345 339
318 319 321 323 324 326 330 330 332 338 339 340 344 309 315 323 349 348 346 345 344 338
317 317 319 321 323 325 328 331 334 338 341 341 341 308 310 320 347 345 345 345 343 341
314 316 317 318 323 326 327 329 335 338 342 342 330 307 310 330 345 342 343 342 342 340
315 316 316 319 323 325 329 333 335 337 343 329 333 303 309 329 341 339 337 339 329 314
316 317 317 320 325 327 329 333 333 337 341 340 331 317 304 312 338 335 334 332 335 324

GFSNIL_sfc_thetae_063.txt.gz
Theta_e
320 325 324 326 327 325 332 332 332 333 337 337 335 329 331 332 329 329 327 324 325 327
318 321 322 322 325 328 331 336 337 336 338 336 335 332 331 331 330 328 331 338 339 333
317 318 320 322 324 324 323 326 330 336 336 336 338 338 335 333 334 333 332 336 346 346
314 316 319 322 323 326 327 328 331 334 334 337 338 338 336 334 335 338 339 346 347 346
316 317 319 319 321 324 325 327 330 334 335 337 339 342 337 338 343 345 346 347 345 344
313 314 316 318 320 319 320 323 325 327 329 333 337 339 347 348 348 348 347 346 342 343
311 315 318 319 321 322 323 323 324 326 329 334 337 339 340 343 347 349 345 345 343 341
311 315 319 320 322 324 324 324 324 324 325 329 334 338 339 345 347 347 341 343 344 342
312 314 313 317 317 320 321 322 323 323 326 328 332 321 317 331 345 339 340 340 340 339
310 311 314 315 317 316 316 320 321 322 323 327 332 316 312 315 344 340 338 339 334 332
308 309 312 314 312 312 315 316 322 324 325 325 330 315 308 311 341 338 337 338 333 331
308 308 310 310 310 311 315 317 318 322 326 330 332 309 305 311 338 335 335 337 334 332
308 309 309 309 310 311 313 317 319 322 326 324 331 311 302 314 337 334 333 330 326 318
308 309 310 311 312 310 314 318 319 322 324 328 330 314 305 309 335 333 331 327 323 318

GFSNIL_sfc_thetae_066.txt.gz
Theta_e
315 317 320 321 322 327 328 330 331 332 333 337 339 339 338 337 338 330 328 326 325 324
314 313 315 318 320 321 322 328 332 331 331 332 335 332 331 331 331 331 329 329 328 327
310 313 314 314 315 318 320 321 323 330 332 334 336 334 331 329 329 329 329 329 328 329
308 311 313 314 315 317 319 321 323 327 328 332 333 335 334 334 333 331 331 333 331 330
309 310 309 311 314 317 319 320 322 323 326 330 332 333 335 335 337 334 333 334 336 336
308 309 310 312 314 316 317 318 319 323 325 327 328 330 333 337 338 336 337 337 339 343
304 307 310 312 312 314 317 317 317 319 321 323 325 327 330 335 338 342 342 344 345 344
306 309 311 314 315 318 319 320 320 320 320 320 322 324 325 331 337 338 342 344 345 344
308 309 309 310 311 313 315 318 320 320 320 320 324 315 312 318 330 338 341 340 340 342
308 308 307 309 311 310 311 313 316 317 318 318 319 310 308 311 323 330 339 339 337 335
307 307 307 307 308 309 309 310 311 314 316 318 320 309 306 309 321 326 336 337 336 333
307 306 306 305 306 308 308 309 311 314 316 317 321 310 307 310 322 327 334 336 333 330
306 306 305 305 305 307 308 309 312 314 316 315 320 311 306 309 322 327 330 331 329 314
306 305 305 305 307 307 306 310 312 313 314 318 319 321 306 301 320 330 329 329 329 327

GFSNIL_sfc_thetae_069.txt.gz
Theta_e
315 318 319 319 320 321 324 327 330 330 331 332 337 337 335 335 335 336 336 335 336 334
312 313 315 316 316 317 318 321 324 328 328 329 330 335 335 335 336 335 334 334 334 331
311 312 311 311 312 313 315 318 320 321 325 327 329 330 329 330 332 330 331 332 329 327
306 308 310 310 310 312 313 315 317 319 321 325 327 328 329 328 330 329 329 329 329 328
304 305 306 307 309 310 311 314 318 320 322 325 326 327 330 331 333 332 331 331 333 332
305 306 307 308 309 310 311 313 315 318 319 322 325 327 328 332 334 333 334 334 334 334
305 306 306 308 310 311 313 313 313 314 316 319 320 321 323 324 325 330 333 336 337 339
302 304 307 309 312 313 315 316 316 316 317 318 320 321 320 320 321 324 329 333 338 342
306 308 308 309 309 309 310 311 312 314 317 317 320 312 310 313 318 322 324 327 333 337
306 306 306 306 306 306 306 307 308 309 311 313 314 308 306 308 314 319 321 325 329 333
306 306 306 305 304 303 303 304 305 306 308 310 314 306 304 305 311 316 320 323 326 331
306 305 305 305 305 302 303 303 304 306 308 308 311 306 304 306 316 318 320 324 328 333
306 305 304 305 304 302 303 305 306 305 306 309 312 306 303 306 315 316 320 324 329 312
305 305 305 304 304 303 302 303 304 306 308 310 312 313 303 300 313 318 321 325 328 324

GFSNIL_sfc_thetae_072.txt.gz
Theta_e
320 320 321 322 325 328 330 331 333 334 335 336 339 339 339 337 337 338 337 336 336 338
315 316 317 319 319 319 321 325 327 329 330 332 333 336 338 337 337 337 337 337 335 334
312 314 314 314 316 317 318 320 324 327 328 329 331 332 333 334 335 335 336 336 335 333
311 313 312 312 313 313 314 317 319 320 321 324 327 330 330 330 330 331 331 333 332 331
309 309 310 311 312 313 314 315 317 320 323 324 326 327 328 329 332 332 331 332 333 332
306 306 307 308 309 311 312 313 316 319 320 322 324 325 327 329 331 332 333 333 334 334
306 306 307 309 311 313 315 315 316 317 319 320 321 323 324 324 326 327 330 332 335 336
308 307 308 309 311 313 315 316 318 318 319 320 321 321 323 323 324 324 324 327 331 335
305 306 307 309 312 313 314 315 316 317 317 317 318 310 308 315 320 322 323 323 325 329
307 308 309 310 310 310 310 310 310 311 313 314 315 306 304 306 316 318 319 321 323 325
306 307 308 307 307 307 307 307 308 308 310 311 312 305 303 304 315 316 318 321 323 324
305 306 306 306 306 305 305 305 306 308 309 310 311 303 301 304 315 317 320 323 325 326
304 304 305 306 306 305 306 306 307 308 308 307 309 302 301 304 313 317 320 323 325 309
303 303 305 306 306 305 304 306 306 307 307 308 309 310 301 301 311 316 319 321 323 327

GFSNIL_sfc_thetae_075.txt.gz
Theta_e
348 345 345 346 344 344 344 345 349 348 348 348 348 348 346 340 338 333 331 335 337 340
336 336 335 339 342 341 344 343 344 345 346 346 347 348 349 347 343 340 335 338 343 343
332 333 334 335 335 336 335 334 335 336 338 339 340 342 344 343 344 341 343 343 344 343
326 327 329 329 330 330 331 330 330 331 334 333 334 338 339 339 338 337 338 339 338 336
325 325 326 326 326 327 326 327 327 328 328 329 330 335 334 332 332 332 332 331 334 333
321 323 325 325 326 325 325 325 325 325 327 328 328 330 332 331 330 331 331 330 331 333
319 320 322 323 323 323 323 323 324 325 325 326 328 327 328 329 329 330 329 331 333 331
321 321 320 320 321 322 323 324 324 325 326 327 328 326 329 330 330 330 329 331 331 331
315 317 319 319 320 322 323 325 325 325 326 326 322 309 311 317 323 323 325 328 330 330
312 313 315 317 318 321 323 325 325 324 322 322 322 307 306 307 320 321 323 324 327 327
308 310 314 315 317 320 322 322 320 320 320 320 319 305 303 304 319 319 320 323 326 328
307 308 310 313 317 319 319 319 318 318 318 318 318 302 300 306 316 315 317 320 324 327
308 308 309 312 313 317 317 317 315 316 317 312 317 302 299 306 313 314 315 319 324 310
307 308 310 313 314 315 314 314 315 314 316 317 315 315 298 298 314 313 314 315 320 323

GFSNIL_sfc_thetae_078.txt.gz
Theta_e
351 349 351 355 350 348 347 351 360 355 355 356 356 356 356 353 349 350 345 343 340 336
352 353 351 357 359 352 355 346 353 356 355 354 354 354 354 350 350 349 346 342 341 338
349 352 353 353 353 352 350 348 350 352 352 352 352 352 352 352 351 347 340 339 341 345
347 347 345 343 340 340 343 341 340 341 343 345 346 348 349 348 346 346 346 346 344 343
338 337 335 333 334 336 336 335 333 333 334 335 336 339 340 340 339 340 340 340 338 336
330 330 331 331 332 331 329 328 327 327 327 327 329 333 334 331 331 332 331 331 331 331
326 328 328 329 329 328 327 326 326 327 326 326 327 329 330 329 331 331 330 330 331 329
324 324 326 328 328 327 326 325 325 325 325 325 326 325 327 328 329 331 330 331 329 330
319 323 324 325 326 326 325 325 324 324 323 325 323 311 316 325 330 330 329 326 325 327
313 315 321 323 324 325 326 330 328 326 326 327 327 307 308 310 327 325 325 325 324 323
311 312 315 320 323 327 327 330 330 330 329 329 326 304 303 306 323 323 324 324 324 325
308 309 311 317 321 324 327 329 330 328 328 327 325 302 301 308 320 321 322 322 323 324
310 310 310 313 320 323 325 326 325 326 326 318 324 300 299 306 316 318 318 322 323 308
312 312 315 318 319 321 321 322 324 323 324 324 321 319 299 298 316 316 316 317 318 319

GFSNIL_sfc_thetae_081.txt.gz
Theta_e
351 351 353 355 350 351 349 354 360 357 356 358 357 357 361 360 358 353 349 349 349 343
348 352 350 353 355 352 354 353 358 358 358 356 357 360 361 356 353 356 354 352 352 348
347 351 353 355 354 353 355 357 354 359 359 358 357 356 357 355 355 353 350 350 350 347
343 347 350 350 352 354 355 356 350 353 355 352 353 354 354 354 350 349 350 349 345 342
338 346 348 349 347 346 343 343 348 347 347 345 345 351 348 346 345 343 344 345 345 342
331 342 344 345 341 341 345 343 340 339 338 337 338 340 342 342 340 342 343 342 342 340
325 331 335 335 339 336 337 336 334 335 331 331 331 334 335 335 336 336 337 338 336 333
319 328 331 331 332 334 332 330 328 327 326 329 330 329 333 333 334 337 335 335 330 332
317 316 325 330 331 331 329 330 328 328 325 330 323 310 314 329 335 334 332 332 331 330
315 316 316 323 327 329 333 333 331 330 329 330 332 307 309 316 334 335 335 332 329 324
314 314 316 317 321 330 334 335 334 330 330 330 328 305 307 313 336 334 332 331 328 328
313 313 313 315 316 318 331 333 333 333 331 333 325 302 303 314 330 328 326 325 326 326
312 313 313 313 315 320 323 329 327 331 334 326 323 300 301 312 319 326 321 327 326 309
310 313 315 318 315 315 319 324 328 330 334 333 330 312 299 300 321 318 319 319 320 322

GFSNIL_sfc_thetae_084.txt.gz
Theta_e
332 338 340 345 346 345 344 345 349 351 350 351 352 352 351 349 348 350 346 346 343 343
332 331 337 344 346 346 348 348 347 351 350 351 351 352 350 348 347 348 347 346 347 344
330 331 333 342 344 346 346 347 348 348 350 350 351 352 350 348 349 350 349 347 344 343
325 330 330 336 341 344 344 346 346 349 350 348 350 349 348 347 348 345 345 345 344 342
323 329 331 334 339 342 342 344 346 333 337 346 342 337 341 342 345 344 345 344 344 342
321 325 327 331 337 342 342 344 333 328 325 322 324 325 329 339 343 343 345 344 343 342
320 324 322 328 334 338 340 335 323 323 323 324 320 320 331 340 341 340 341 342 340 339
320 322 322 323 328 334 326 324 328 322 323 331 321 330 334 334 334 337 337 338 337 337
315 318 319 320 320 317 321 319 323 329 322 322 333 316 316 327 332 334 332 330 331 327
310 313 317 317 317 317 318 325 328 326 326 326 325 310 310 318 331 332 331 330 331 324
309 309 314 316 316 317 316 320 329 328 327 327 324 306 307 314 332 332 333 331 329 326
308 308 310 315 316 318 314 315 330 331 330 328 316 302 306 319 331 328 328 328 328 328
307 307 307 314 315 315 315 314 321 331 330 320 320 300 304 320 325 325 324 326 327 309
304 305 310 308 318 313 314 315 317 324 331 326 318 309 300 307 322 322 321 321 323 323

GFSNIL_sfc_thetae_087.txt.gz
Theta_e
321 322 322 323 325 335 337 339 343 342 343 341 340 341 342 341 343 341 341 339 336 340
319 322 323 323 325 326 336 341 340 342 341 341 336 338 346 343 343 344 344 342 339 337
314 318 319 320 323 325 328 338 340 341 342 341 341 343 346 345 344 343 345 343 341 339
312 317 317 320 324 325 327 333 338 341 341 340 339 341 342 343 342 342 341 343 341 340
312 314 313 319 321 322 324 328 333 339 339 338 336 325 324 333 340 330 338 340 340 339
307 311 312 316 316 318 323 327 332 335 330 326 331 323 324 323 323 324 321 332 336 336
305 306 311 315 315 317 318 319 326 324 322 321 322 323 325 323 322 320 320 324 331 333
305 306 307 310 315 316 317 320 324 321 319 318 319 322 322 321 321 319 320 326 332 334
302 304 305 307 312 313 315 317 322 319 321 316 322 311 311 320 326 330 331 330 331 326
302 302 303 305 308 312 311 312 315 316 322 317 319 307 307 313 328 329 329 330 321 320
301 301 302 303 306 311 310 311 313 314 320 319 323 306 307 307 323 327 326 323 320 317
300 300 301 302 303 308 311 313 312 315 317 318 320 308 303 308 324 325 323 323 320 318
299 300 300 301 303 308 312 313 315 315 316 318 321 305 304 314 325 321 320 319 317 311
298 298 301 301 302 303 309 312 313 313 314 316 315 308 306 311 322 320 318 317 314 313

GFSNIL_sfc_thetae_090.txt.gz
Theta_e
312 314 316 318 319 318 322 327 329 333 339 340 339 339 335 327 326 326 328 330 336 333
310 312 314 316 319 319 320 324 325 327 334 338 339 337 334 330 326 326 326 328 336 335
307 310 312 315 315 316 320 322 323 323 325 331 338 335 332 329 327 326 329 335 337 338
305 307 310 312 314 319 320 318 319 320 322 326 332 334 329 325 327 329 334 338 339 338
304 304 305 309 312 317 316 317 318 322 321 325 329 332 333 333 335 334 333 320 321 320
303 302 303 305 309 313 315 318 315 317 318 320 324 330 325 326 325 325 324 322 322 321
302 303 304 305 306 309 314 315 315 317 318 321 324 329 327 323 323 323 321 322 320 324
300 302 303 303 305 308 309 315 316 317 320 322 323 326 323 322 322 321 322 321 321 323
300 301 302 302 303 305 306 311 314 316 319 319 320 312 312 320 323 324 323 320 320 322
298 298 299 300 301 303 305 307 310 312 314 320 317 307 306 310 320 319 319 318 319 322
296 297 300 299 299 300 305 309 308 309 312 318 319 307 305 306 325 324 324 323 324 325
296 296 298 299 299 299 302 307 308 311 311 315 315 307 304 305 318 324 325 326 325 322
296 296 296 298 300 298 302 309 311 311 313 312 313 305 304 306 315 319 323 321 319 309
297 296 297 297 298 299 302 306 308 309 311 313 314 313 300 303 316 321 320 317 316 313

GFSNIL_sfc_thetae_093.txt.gz
Theta_e
307 308 309 311 313 315 316 319 323 325 328 331 334 336 338 339 337 337 332 330 328 327
305 305 307 309 312 315 316 319 319 322 323 325 330 333 335 335 336 335 334 333 330 326
303 304 305 306 308 311 315 316 319 321 320 319 321 325 330 333 334 331 331 330 329 328
302 302 303 305 308 309 311 316 319 318 318 318 320 322 325 328 331 331 330 329 327 327
301 301 302 303 305 307 309 311 314 317 318 320 320 321 323 324 328 328 327 326 325 327
299 300 300 301 303 305 307 309 312 316 315 315 317 318 319 323 325 328 326 326 326 328
296 298 300 300 300 301 306 307 309 312 316 317 316 317 319 320 324 325 328 330 326 325
296 296 298 299 299 301 303 304 306 308 312 315 315 318 319 320 322 324 324 325 326 326
296 296 297 299 299 300 300 301 303 305 307 310 314 312 310 314 321 324 323 322 322 323
297 296 296 297 297 299 300 300 301 303 307 310 311 308 305 307 315 321 321 321 321 321
297 297 297 296 296 298 299 298 299 301 307 310 311 305 302 303 312 319 318 320 320 319
297 297 297 296 296 297 298 299 301 303 305 307 310 305 300 304 314 316 317 317 318 320
298 298 297 297 296 297 298 300 300 302 308 308 309 304 300 306 313 315 315 321 321 311
299 299 299 298 297 297 297 298 300 302 305 309 309 310 301 303 311 314 315 319 316 314

GFSNIL_sfc_thetae_096.txt.gz
Theta_e
304 305 305 307 308 310 312 315 319 323 326 329 333 336 338 338 338 338 337 336 336 337
303 304 304 305 307 308 311 314 317 320 322 325 329 332 333 334 336 337 336 335 335 335
301 303 304 304 304 306 309 312 314 316 319 322 323 324 327 329 332 333 334 334 333 332
300 301 302 302 303 305 306 308 309 313 316 319 320 320 320 322 326 328 330 331 330 330
300 300 299 300 301 303 304 306 307 309 312 314 318 320 321 320 323 325 325 327 329 329
297 297 297 298 300 302 303 303 303 305 308 311 315 317 318 318 319 321 325 326 327 327
297 297 297 297 297 298 300 300 301 303 307 309 311 315 318 318 318 319 321 324 326 326
297 297 298 298 298 298 299 301 302 303 304 305 306 309 314 316 316 318 320 321 323 326
298 298 298 298 299 298 298 299 299 300 301 302 304 303 305 310 314 317 318 319 320 324
298 298 298 298 298 298 298 298 298 301 301 302 303 301 302 305 311 314 316 318 319 322
297 297 298 298 298 298 298 297 297 298 300 301 302 301 301 303 310 313 315 317 320 322
297 297 297 297 298 298 298 297 297 298 299 301 302 301 300 302 311 313 314 318 320 322
296 297 297 298 299 299 299 298 298 298 299 301 303 303 299 301 309 313 313 317 319 309
296 297 299 299 300 299 298 298 297 298 300 301 303 305 300 299 312 312 313 315 317 319

GFSNIL_sfc_thetae_099.txt.gz
Theta_e
312 311 311 313 312 312 313 315 320 321 324 327 329 334 343 340 340 344 341 342 343 338
311 310 310 311 312 311 313 313 315 317 319 321 324 328 335 334 339 341 340 340 341 338
309 309 309 310 310 310 311 312 312 313 314 316 319 323 328 331 336 337 335 333 338 339
307 307 308 307 307 307 308 309 309 310 311 313 314 317 321 325 328 329 332 335 335 336
306 306 305 305 306 306 306 307 307 309 309 310 311 314 315 317 322 325 326 329 332 331
304 304 304 304 305 305 305 305 305 306 306 306 307 308 313 315 318 323 326 326 328 331
303 304 304 304 303 303 303 302 303 303 303 305 306 307 310 312 315 318 322 325 327 328
304 304 303 302 302 303 304 303 303 302 303 303 304 305 306 308 310 315 318 321 322 325
301 301 303 303 303 304 303 303 302 301 301 301 303 301 302 304 305 308 310 312 318 321
303 301 302 303 302 301 302 301 300 300 300 300 300 300 300 302 305 305 307 307 312 316
301 302 301 299 300 301 300 300 300 300 300 299 300 299 298 300 303 306 308 307 310 318
300 298 297 297 299 302 300 303 300 300 300 299 299 298 298 300 304 305 309 310 315 318
299 297 297 298 299 303 303 301 301 300 300 300 301 299 297 299 303 305 309 313 315 308
299 299 299 299 301 300 302 301 301 299 300 301 303 305 298 297 302 305 311 312 317 321

GFSNIL_sfc_thetae_102.txt.gz
Theta_e
322 319 319 321 319 319 319 320 325 324 325 326 329 330 333 334 337 343 342 346 346 335
320 319 318 319 320 318 320 319 320 321 321 322 323 324 329 326 335 341 343 340 344 340
317 318 318 317 317 318 318 318 318 318 319 319 320 321 323 324 329 334 335 334 337 338
315 315 315 315 315 315 315 315 314 314 315 315 316 318 320 321 321 324 332 334 336 337
314 314 313 313 313 314 313 313 312 312 312 311 312 314 314 313 316 319 322 328 331 332
312 312 312 311 312 311 311 310 310 309 308 308 309 309 310 311 312 315 318 322 326 329
311 311 311 311 310 309 307 306 306 306 306 306 305 305 306 306 307 310 313 318 323 325
310 310 310 307 306 306 307 307 306 305 305 305 305 303 304 305 306 307 308 309 312 320
308 308 307 307 306 306 307 306 306 306 306 305 303 301 301 303 302 303 304 305 307 311
308 308 306 306 306 305 306 306 305 307 304 306 304 300 299 300 302 301 303 304 304 307
307 306 307 307 307 305 304 303 305 306 306 305 304 300 298 299 301 301 302 303 305 306
305 305 307 305 304 305 303 301 303 306 307 305 305 299 297 299 302 301 303 306 308 309
303 304 302 302 302 303 301 302 303 304 305 304 303 300 297 298 302 301 303 304 306 304
304 304 303 303 304 302 301 303 304 304 303 305 305 305 298 297 304 303 303 306 308 315

GFSNIL_sfc_thetae_105.txt.gz
Theta_e
326 323 323 325 323 322 322 322 331 328 327 327 327 328 333 330 331 338 338 344 344 341
324 324 323 324 324 321 324 322 324 323 323 324 324 325 328 324 328 332 334 335 339 341
321 322 322 322 321 321 321 321 320 319 319 320 320 321 325 322 325 327 327 329 331 334
319 320 320 319 319 319 319 318 317 317 316 316 316 318 320 320 320 319 322 326 326 327
318 318 318 317 317 317 316 315 315 314 313 312 311 313 313 313 313 313 314 317 318 321
316 316 316 316 316 315 313 312 311 309 308 308 308 308 309 308 307 309 310 310 312 317
315 315 314 314 313 312 311 309 310 310 309 309 308 308 308 307 308 307 308 309 313 313
314 314 313 312 311 311 311 310 310 309 309 309 307 307 307 308 307 306 305 308 308 309
312 311 311 312 310 310 309 309 309 308 308 306 307 304 303 305 306 305 305 303 306 308
310 309 309 310 310 310 310 311 309 309 308 306 307 302 300 302 304 304 303 304 305 305
309 309 309 309 309 311 309 309 308 306 304 306 307 302 299 300 304 304 304 303 305 304
308 307 307 306 307 308 307 306 304 304 305 307 307 302 298 299 303 303 303 305 307 306
305 305 305 305 307 306 308 305 305 306 309 306 308 303 299 300 306 304 304 307 305 302
303 304 306 307 306 307 306 307 307 307 309 309 308 311 301 298 308 308 305 305 305 307

GFSNIL_sfc_thetae_108.txt.gz
Theta_e
331 326 327 327 325 324 323 324 329 327 324 323 323 324 326 325 324 326 327 329 332 334
327 327 326 327 328 324 324 321 323 322 322 322 321 321 321 319 321 323 323 324 325 327
325 325 325 325 323 323 322 321 320 319 319 319 318 318 318 316 317 318 318 319 320 321
323 322 322 321 321 320 320 319 316 316 315 313 312 313 312 312 312 312 312 314 314 315
322 321 321 320 319 319 317 316 313 313 311 310 310 310 309 308 308 308 308 308 309 309
320 320 319 317 318 317 314 312 312 311 310 310 310 309 308 307 307 307 307 307 306 306
318 318 317 316 316 314 313 312 311 311 310 309 309 309 308 307 307 308 308 307 307 306
317 316 315 314 314 314 312 311 310 309 308 309 309 308 307 306 306 305 305 306 306 306
314 313 313 313 313 312 312 312 311 310 309 308 308 304 303 305 305 306 306 304 304 305
311 310 311 311 311 310 310 310 308 309 308 307 306 302 301 303 305 305 305 304 304 304
307 308 309 309 308 308 307 306 307 307 307 305 306 302 300 301 304 305 305 305 304 304
303 305 306 305 304 307 306 307 307 307 307 307 307 303 300 301 306 306 306 306 305 305
301 302 303 304 305 305 306 306 307 307 308 308 309 304 300 301 306 305 306 307 307 303
298 301 302 305 304 306 306 306 305 307 309 309 308 307 300 299 303 304 304 305 307 309

GFSNIL_sfc_thetae_111.txt.gz
Theta_e
316 315 315 316 315 314 315 314 316 315 316 316 316 315 315 316 316 318 318 317 319 321
314 314 314 314 314 313 314 316 314 314 313 314 315 314 313 312 312 314 315 315 315 315
313 314 313 313 312 311 312 312 312 311 310 309 309 308 307 306 307 307 308 311 310 311
311 312 312 311 311 311 310 309 308 308 307 307 306 306 304 304 305 305 304 305 306 307
311 311 310 310 310 310 307 307 307 307 306 307 307 305 305 304 305 305 304 304 303 304
309 309 308 308 308 308 306 306 306 306 306 306 306 305 305 305 306 304 306 306 305 304
308 308 307 307 307 306 306 306 305 305 305 306 306 306 306 307 306 303 305 307 307 305
308 307 306 306 305 307 306 306 307 306 307 307 306 307 303 303 303 302 302 303 304 304
306 306 305 306 306 304 304 304 305 306 307 304 305 303 303 304 302 302 302 302 304 305
303 303 303 304 303 302 302 303 306 305 303 302 303 302 301 303 304 305 304 303 303 303
299 299 301 301 300 301 305 304 304 304 305 304 305 302 300 301 304 304 305 304 304 304
297 298 299 299 301 303 304 304 304 305 306 305 307 302 300 300 302 302 302 304 306 307
296 296 298 300 301 303 303 304 305 305 304 304 305 302 298 298 299 297 299 300 302 303
296 296 299 300 301 301 303 304 304 302 301 301 302 300 296 296 296 296 295 296 298 301

GFSNIL_sfc_thetae_114.txt.gz
Theta_e
313 313 312 311 311 311 310 311 311 311 312 313 314 313 312 311 311 312 311 311 312 313
312 311 311 310 311 310 311 313 311 310 309 309 308 308 306 305 305 306 305 305 307 307
310 311 310 310 309 309 309 308 307 306 306 306 306 306 304 303 304 303 303 305 304 304
309 310 309 309 308 308 307 306 306 306 305 305 305 305 303 302 303 304 303 303 303 303
308 308 308 307 307 307 305 305 305 306 305 306 306 305 303 303 305 304 304 303 303 303
306 307 306 306 306 307 305 304 304 305 304 305 305 304 304 303 304 304 304 304 303 303
304 306 305 305 305 304 304 304 304 304 305 305 305 305 305 304 302 302 303 303 303 303
303 304 303 303 303 303 303 303 304 304 304 303 304 305 304 305 305 304 303 304 303 303
300 301 301 301 301 301 301 302 302 303 302 302 304 303 303 305 304 305 304 303 304 304
298 298 298 300 300 299 299 300 301 300 304 302 302 301 301 302 304 304 303 304 304 304
295 296 297 297 298 298 299 300 300 302 305 302 304 302 300 300 301 301 301 302 303 303
294 294 295 296 299 298 298 301 301 301 302 301 302 300 297 297 297 297 299 301 302 302
294 296 296 298 299 301 301 302 304 302 301 301 300 297 296 296 294 294 296 297 299 300
294 293 296 297 298 300 300 298 299 298 298 299 296 295 294 294 292 293 293 295 298 302

GFSNIL_sfc_thetae_117.txt.gz
Theta_e
313 312 310 310 310 309 308 308 309 310 310 309 309 308 305 305 305 306 304 304 304 305
310 310 309 308 308 308 308 310 308 307 306 306 306 305 303 302 302 302 301 301 301 302
309 309 308 308 307 307 307 306 305 304 304 304 304 304 302 301 302 302 302 303 301 301
308 308 308 308 307 307 305 304 304 305 304 304 304 304 302 302 302 302 302 303 303 303
307 307 306 305 306 306 304 303 304 304 304 304 304 304 303 302 303 303 302 303 303 303
304 305 304 304 304 305 303 303 304 304 304 304 304 303 303 303 303 303 303 304 303 302
300 301 302 302 302 303 303 302 303 303 303 303 303 304 304 304 305 305 305 305 305 304
298 300 301 301 300 300 301 301 302 302 302 302 302 305 304 305 305 303 303 304 305 304
297 297 297 298 299 299 299 300 300 301 301 300 303 303 303 304 303 302 302 302 304 305
295 295 296 297 297 297 297 298 298 299 300 302 300 301 300 301 299 299 299 300 301 302
293 293 294 294 295 296 296 297 297 299 300 300 301 300 297 298 296 296 297 298 300 300
292 292 293 294 296 296 295 297 301 302 302 297 297 297 295 295 295 294 294 297 298 299
294 294 294 296 295 298 299 300 300 299 296 298 294 294 294 294 292 291 293 295 297 299
292 292 294 295 296 294 295 296 295 294 292 291 292 292 294 293 291 291 291 293 296 301

GFSNIL_sfc_thetae_123.txt.gz
Theta_e
324 323 323 322 323 322 318 318 320 318 317 317 317 317 317 315 314 316 314 314 314 312
320 320 320 319 321 318 318 316 315 316 316 316 316 316 317 314 315 315 314 314 314 313
319 318 319 318 317 317 318 317 316 315 316 315 316 316 316 314 314 314 313 313 313 313
319 318 318 317 317 317 317 315 314 314 314 314 314 314 314 314 313 312 313 314 313 313
317 318 317 316 317 317 315 315 314 314 313 313 312 313 312 312 312 313 312 313 313 313
316 316 315 315 316 316 315 314 314 313 312 311 311 311 312 313 313 313 313 313 312 312
312 313 313 313 313 312 312 312 312 312 311 311 311 311 312 312 312 311 311 311 310 311
309 310 310 310 310 310 310 310 310 310 310 311 311 309 309 308 308 309 308 308 309 311
306 306 306 307 307 308 309 309 309 309 309 310 309 299 298 300 304 306 306 307 308 310
303 303 303 305 306 306 307 308 308 309 310 308 308 297 296 297 303 304 305 305 306 306
302 302 303 304 304 306 306 307 308 308 306 305 302 295 294 294 303 304 304 302 303 303
300 301 302 302 301 302 304 305 305 305 302 302 302 293 294 295 301 302 300 299 300 300
300 301 301 299 300 301 301 301 302 300 299 297 299 293 292 293 297 297 296 297 301 300
300 300 300 299 298 297 297 297 296 297 299 299 296 295 292 291 293 293 294 298 301 303